Location: Brazeau Bottoms
(37.6736°N, 89.5244°W)
Time: 04:44:18
(UTC+00:00)

Daily predictions for brighter satellites

Satellite Brightness Start Highest point End
(mag) Time Altitude Azimuth Time Altitude Azimuth Time Altitude Azimuth
Cosmos 1726 3.0 01:47:56 10° NNE 01:51:12 31° ENE 01:54:29 10° SE
ASTRO E2 4.0 01:48:23 10° SW 01:51:28 22° SSE 01:54:35 10° ESE
Cosmos 1452 Rocket 3.8 01:47:35 10° S 01:52:36 47° ESE 01:57:39 10° NNE
BREEZE-M DEB (TANK) 2.5 01:51:28 10° WNW 01:53:23 34° SW 01:56:38 10° SSE
BREEZE-M DEB (TANK) 1.7 01:51:19 10° SW 01:53:42 73° SE 01:56:24 10° ENE
Cosmos 292 Rocket 3.8 01:50:43 10° S 01:55:31 72° ESE 02:00:20 10° NNE
Cosmos 1766 4.0 01:54:01 10° NNW 01:57:47 54° W 02:01:34 10° S
FALCON 9 DEB 4.1 01:55:28 10° S 01:57:56 22° SE 02:00:26 10° ENE
Cosmos 407 Rocket 4.4 01:56:09 10° NNW 02:01:14 50° WSW 02:06:15 10° S
Cosmos 2360 Rocket 2.7 01:58:47 10° S 02:03:59 39° ESE 02:09:11 10° NE
SL-16 R/B 2.4 02:01:14 10° SSW 02:06:53 82° WNW 02:12:36 10° NNE
Cosmos 2322 Rocket 2.2 02:01:44 10° SSW 02:07:24 77° ESE 02:13:08 10° NNE
Cosmos 1470 2.9 02:04:17 10° N 02:08:12 59° E 02:12:05 10° SSE
OBJECT-B 1.9 02:06:04 10° S 02:09:07 43° W 02:12:12 10° NNW
Meteor 2-10 4.0 02:04:25 10° N 02:09:32 88° E 02:14:45 10° S
ATLAS 3B R/B 3.3 02:05:57 10° SSE 02:11:26 29° ESE 02:17:01 10° NE
FALCON 9 DEB 2.9 02:11:46 10° SSW 02:14:46 52° SE 02:17:47 10° ENE
Cosmos 1378 Rocket 4.2 02:11:52 10° SSW 02:16:08 60° W 02:20:27 10° N
Okean 1 Rocket 3.0 02:12:06 10° N 02:16:28 74° E 02:20:52 10° SSE
SJ-6B 4.0 02:15:02 10° S 02:18:56 44° W 02:22:50 10° NNW
MOS 1 4.4 02:15:03 10° SSE 02:20:45 86° WSW 02:26:30 10° NNW
FALCON 9 DEB 3.1 02:18:40 10° SSW 02:21:39 44° SE 02:24:38 10° ENE
Cosmos 2227 4.4 02:16:10 10° NNW 02:21:46 70° WSW 02:27:20 10° SSE
FALCON 9 DEB 2.7 02:21:57 10° SW 02:25:01 65° SE 02:28:06 10° NE
IGS 5A 3.7 02:22:05 13° SSE 02:25:41 54° ENE 02:29:46 10° N
Resurs 1-3 3.7 02:21:21 10° S 02:25:43 76° WSW 02:30:08 10° NNW
USA 186 4.4 02:24:47 10° SW 02:26:32 15° W 02:28:20 10° NW
COSMOS 2428 4.1 02:28:13 15° SE 02:30:45 20° E 02:34:43 10° NE
Cosmos 1461 4.1 02:29:19 10° N 02:33:01 29° NE 02:35:32 16° ESE
Cosmos 2237 4.2 02:29:27 10° SSW 02:35:09 87° WNW 02:40:52 10° NNE
Terra 3.9 02:34:02 10° E 02:36:00 13° ENE 02:37:59 10° NE
Cosmos 1315 Rocket 3.1 02:32:10 10° NNW 02:36:17 69° W 02:40:17 10° S
Cosmos 1626 3.3 02:36:00 20° SE 02:37:23 25° E 02:40:28 10° NE
ATLAS CENTAUR R/B 3.7 02:35:03 10° N 02:37:46 16° NE 02:40:34 10° E
Cosmos 1707 3.5 02:34:51 10° SSW 02:38:38 52° W 02:42:27 10° N
Cosmos 1741 Rocket 4.3 02:34:57 10° N 02:40:08 54° ENE 02:43:44 19° SE
Cosmos 1844 Rocket 3.4 02:35:11 10° N 02:40:29 39° ENE 02:44:09 18° ESE
Cosmos 1025 Rocket 3.8 02:38:30 19° SE 02:40:55 33° E 02:44:50 10° NNE
Meteor 2-20 Rocket 4.4 02:35:57 10° S 02:42:04 84° E 02:48:12 10° N
Ariane Rocket 3.7 02:39:57 10° S 02:44:54 52° W 02:49:53 10° NNW
USA 215 4.5 02:41:25 10° E 02:45:34 18° ESE 02:45:41 18° ESE
SPOT 3 Rocket 3.5 02:41:59 15° SSE 02:46:14 81° ENE 02:51:26 10° N
SL-4 R/B 3.6 02:44:14 10° S 02:49:24 18° E 02:50:55 10° ENE
CZ-2C R/B 3.7 02:45:28 10° NNE 02:50:16 75° ESE 02:55:00 10° S
Cosmos 2173 Rocket 4.3 02:47:02 10° N 02:53:17 54° E 02:57:24 21° SSE
CARTOSAT-1 4.4 02:52:07 23° ESE 02:54:02 35° ENE 02:57:58 10° N
Cosmos 2263 Rocket 3.8 02:49:47 10° NW 02:54:40 30° WSW 02:59:33 10° SSW
Lacrosse 5 2.5 02:50:33 10° NW 02:55:24 47° SW 02:58:35 20° S
MetOp-B 4.1 02:52:22 19° SSE 02:56:17 81° ENE 03:01:39 10° N
Lacrosse 5 rocket 2.5 02:52:45 10° WSW 02:56:18 40° NW 02:59:44 10° NNE
Cosmos 1758 4.0 02:52:58 10° NNW 02:56:50 52° W 03:00:01 14° SSW
In-Cosmos 22 4.5 02:52:31 10° SSW 02:57:44 63° W 03:02:59 10° N
ATLAS 2A CENTAUR R/B 3.7 02:46:17 10° SW 03:00:45 29° S 03:03:32 23° SSE
USA 245 4.1 02:58:44 25° SSE 03:01:35 67° ENE 03:07:14 10° N
Landsat 7 4.1 02:59:40 17° S 03:03:16 66° WSW 03:08:01 10° NNW
Cosmos 1975 Rocket 3.4 02:59:06 10° SSW 03:03:25 66° W 03:07:47 10° N
BREEZE-M DEB (TANK) 3.8 03:05:28 10° NNW 03:07:49 20° NNE 03:08:35 17° NE
Cosmos 405 4.5 03:05:53 10° NNE 03:08:38 22° ENE 03:08:44 22° ENE
Cosmos 1110 Rocket 4.3 03:03:30 10° SSW 03:08:38 69° WNW 03:13:50 10° NNE
Cosmos 2333 4.1 03:03:01 10° SSW 03:08:46 78° ESE 03:14:31 10° NNE
Resurs 01 Rocket 2.6 03:06:34 14° SSW 03:10:03 42° W 03:14:15 10° NNW
SL-14 R/B 3.6 03:12:10 38° SE 03:13:11 48° E 03:17:04 10° NNE
Meteor 2-5 Rocket 4.1 03:14:25 30° SE 03:16:29 42° E 03:21:42 10° NNE
Cosmos 1953 2.5 03:17:47 10° NNW 03:21:50 67° W 03:23:32 33° SSW
Cosmos 2333 Rocket 2.1 03:16:28 10° SSW 03:22:12 83° ESE 03:27:58 10° NNE
Cosmos 1674 4.0 03:19:14 11° SW 03:22:29 36° W 03:25:56 10° N
Cosmos 2219 Rocket 2.1 03:19:18 16° SSW 03:23:50 73° ESE 03:29:30 10° NNE
BREEZE-M DEB (TANK) 3.4 03:25:12 10° W 03:27:22 30° NNW 03:30:46 10° NE
Cosmos 1802 Rocket 4.0 03:23:56 10° N 03:30:15 83° E 03:33:34 31° S
ASTRO E2 3.9 03:27:49 10° WSW 03:30:13 27° SSW 03:30:13 27° SSW
Meteor 2-11 Rocket 4.4 03:28:17 10° N 03:34:24 82° W 03:37:36 30° S
Cosmos 1459 Rocket 4.1 03:28:44 10° N 03:34:45 72° W 03:38:14 27° S
Cosmos 1844 3.6 03:29:19 10° NNW 03:34:55 89° WSW 03:37:07 39° SSE
Cosmos 1300 2.9 03:38:23 10° N 03:42:05 53° ENE 03:42:05 53° ENE
Cosmos 2237 Rocket 3.2 03:44:17 28° E 03:44:17 28° E 03:48:42 10° NE
Geosat 4.0 03:42:57 46° SE 03:44:26 74° ENE 03:49:27 10° NNW
ERS-1 Rocket 2.9 03:44:13 45° SSE 03:45:48 89° WSW 03:50:52 10° NNW
ARIANE 5 R/B 3.0 03:45:36 41° SSW 03:46:54 60° W 03:51:21 10° NNW
Cosmos 1340 3.3 03:46:02 39° SW 03:47:03 52° W 03:50:45 10° N
Cosmos 2360 Rocket 4.2 03:43:18 10° WSW 03:48:02 27° WNW 03:52:49 10° N
Spot 2 Rocket 3.9 03:46:38 33° SSW 03:48:42 55° W 03:53:41 10° NNW
Cosmos 1544 Rocket 4.1 03:45:14 10° NNW 03:49:36 55° W 03:50:54 39° SSW
Meteor 1-24 Rocket 3.5 03:49:56 48° SSE 03:51:22 70° E 03:56:49 10° NNE
NOSS 0 Rocket 4.0 03:58:46 46° SSE 04:00:14 58° ESE 04:06:20 10° NNE
ATLAS 3B R/B 3.5 03:55:30 10° SW 04:01:46 48° NW 04:08:15 10° NNE
SL-8 R/B 3.5 03:57:37 10° WNW 04:02:26 85° SW 04:02:55 72° SE
Cosmos 2061 Rocket 4.4 04:04:12 10° NNW 04:10:31 61° W 04:13:09 35° SSW
Terra 1.9 04:12:29 58° SW 04:13:09 66° WSW 04:17:54 10° NNW
Cosmos 389 Rocket 4.0 04:10:33 10° N 04:12:39 30° NNE 04:12:39 30° NNE
COSMOS 2428 3.4 04:10:08 16° SW 04:14:31 53° WNW 04:20:09 10° NNE
Cosmos 1346 Rocket 3.0 04:17:00 67° N 04:17:00 67° N 04:20:31 10° N
ATLAS CENTAUR R/B 1.7 04:12:34 10° NW 04:16:58 62° WSW 04:16:58 62° WSW
SPOT 5 3.8 04:16:00 36° SW 04:17:17 43° W 04:22:01 10° NNW
Cosmos 2233 Rocket 3.9 04:11:54 10° N 04:18:05 89° W 04:19:39 54° S
Cosmos 1447 Rocket 4.4 04:18:38 51° S 04:20:22 88° E 04:26:35 10° N
Cosmos 2278 Rocket 2.8 04:16:08 10° N 04:21:33 44° ENE 04:22:35 40° E
Cosmos 1844 Rocket 4.1 04:19:29 10° NW 04:24:07 26° WSW 04:25:49 23° SW
SL-4 R/B 2.8 04:23:58 16° WSW 04:27:05 49° NW 04:30:52 10° NE
USA 215 3.1 04:22:33 10° NE 04:29:07 81° SE 04:32:56 28° SW
Cosmos 2228 3.1 04:24:58 10° N 04:29:00 73° NNE 04:29:00 73° NNE
Cosmos 1867 3.4 04:36:37 10° NNW 04:42:08 85° ENE 04:42:25 80° ESE
Cosmos 1943 Rocket 4.4 04:47:09 10° NNE 04:50:09 15° NE 04:52:30 12° E
Cosmos 1607 4.3 04:44:18 10° NNW 04:50:35 55° NE 04:51:54 47° E
Meteor 2-10 Rocket 3.8 04:46:14 10° NNW 04:51:08 54° W 04:51:13 54° W
Cosmos 968 Rocket 4.1 04:48:38 10° NNW 04:53:27 44° WSW 04:53:27 44° WSW
Cosmos 2346 Rocket 4.4 04:53:35 62° ESE 04:53:57 63° E 05:00:02 10° NNE
Cosmos 1980 4.0 04:53:23 51° WSW 04:54:36 64° WNW 05:00:16 10° NNE
Cosmos 1486 Rocket 4.2 04:50:40 10° NNW 04:55:40 58° W 04:55:40 58° W
Okean 1-7 Rocket 4.3 05:02:36 50° NNE 05:02:36 50° NNE 05:05:58 10° NNE
Cosmos 1464 Rocket 3.9 05:00:27 10° N 05:06:51 80° E 05:07:30 71° SE
Cosmos 1455 3.7 05:04:01 10° NNW 05:06:21 35° NNW 05:06:21 35° NNW
ATLAS CENTAUR R/B 2.7 05:08:15 68° WSW 05:08:52 79° NW 05:19:05 10° NE
Spot 4 4.0 05:10:00 69° NNW 05:10:00 69° NNW 05:14:12 10° NNW
Cosmos 1354 Rocket 4.0 05:06:12 10° NNW 05:11:17 81° NNW 05:11:17 81° NNW
Cosmos 2058 Rocket 3.8 05:11:02 10° N 05:14:26 52° NNW 05:14:26 52° NNW
Meteor 2-1 Rocket 4.1 05:12:58 10° N 05:18:25 86° N 05:18:25 86° N
Cosmos 1816 Rocket 4.3 05:21:22 74° ESE 05:21:34 75° E 05:27:40 10° N
SL-16 R/B 2.3 05:25:29 67° ENE 05:25:29 67° ENE 05:30:38 10° NNE
Cosmos 2237 Rocket 3.4 05:26:03 29° W 05:27:50 36° WNW 05:33:01 10° N
SJ 16-02 3.0 05:27:43 10° N 05:30:54 27° NE 05:30:54 27° NE
GP-B 4.4 05:31:12 10° NNE 05:34:10 33° NE 05:34:10 33° NE
Cosmos 2369 Rocket 4.2 05:37:29 10° N 05:41:40 20° NE 05:44:11 16° E
Cosmos 2034 Rocket 3.8 05:36:15 10° N 05:42:26 77° W 05:42:38 76° WSW
ALOS 2 3.6 05:43:59 44° NNW 05:43:59 44° NNW 05:47:05 10° NNW
USA 229 DEB 3.7 05:44:47 58° E 05:44:47 58° E 05:50:55 10° NE
USA 229 3.7 05:44:55 57° E 05:44:55 57° E 05:51:00 10° NE
GEOS 3 Rocket 3.8 05:47:15 67° WNW 05:47:15 67° WNW 05:52:00 10° NW
NOSS 3-1 (C) 3.2 05:53:14 74° NW 05:53:14 74° NW 05:59:03 10° NNE
BREEZE-M DEB (TANK) 3.8 05:57:01 62° SE 05:57:12 62° SE 06:13:58 10° NE
NOSS 3-1 (A) 3.3 06:04:54 64° ENE 06:04:54 64° ENE 06:10:05 10° NE
Cosmos 2278 Rocket 3.8 06:00:54 10° NW 06:04:25 23° W 06:04:25 23° W
Tsikada Rocket 4.1 06:05:58 57° W 06:06:21 59° W 06:12:26 10° N
Cosmos 2297 3.7 06:01:42 10° NNW 06:07:10 78° NE 06:07:10 78° NE
USA 32 4.3 06:03:38 10° N 06:08:14 62° NW 06:08:14 62° NW
Cosmos 1763 Rocket 4.0 06:15:44 50° ENE 06:15:44 50° ENE 06:19:51 10° NNE
Thor Agena Rocket 4.0 06:19:02 10° N 06:23:55 54° WNW 06:23:55 54° WNW
Meteor 1-27 4.1 06:18:48 10° N 06:24:10 81° NE 06:24:10 81° NE
In-Cosmos 22 Rocket 4.1 06:26:02 80° NE 06:26:02 80° NE 06:31:18 10° N
Cosmos-2242 4.0 06:22:13 10° N 06:25:20 45° NNW 06:25:20 45° NNW
Resurs 1-4 Rocket 3.9 06:23:42 10° NE 06:27:26 19° E 06:27:37 19° E
Cosmos 1825 4.1 06:32:05 27° NE 06:32:05 27° NE 06:34:03 10° NNE
Cosmos 1943 Rocket 2.2 06:29:01 10° NNW 06:33:59 70° NW 06:33:59 70° NW
X-37B 3.8 06:37:56 12° NE 06:37:56 12° NE 06:38:22 10° NE
Cosmos 1943 3.2 06:38:48 68° E 06:38:48 68° E 06:44:09 10° NNE
Cosmos 405 Rocket 4.4 06:44:03 30° NNE 06:44:03 30° NNE 06:46:02 10° N
USA 267 3.1 06:41:13 58° SE 06:42:41 87° SW 06:49:15 10° NW
CZ-2D R/B 3.4 06:42:33 10° NE 06:47:00 28° E 06:47:12 28° E
Cosmos 1603 3.6 06:47:29 86° E 06:47:29 86° E 06:53:09 10° NNE
Cosmos 2058 4.1 06:49:06 39° NE 06:49:06 39° NE 06:51:56 10° NNE
Cosmos 540 Rocket 3.5 06:54:25 69° ENE 06:54:25 69° ENE 06:59:07 10° NNE
Cosmos 2221 3.6 06:52:02 10° N 06:55:40 39° ENE 06:55:40 39° ENE
Cosmos 2279 Rocket 3.9 06:52:44 10° NNW 06:58:55 67° W 06:59:19 65° WSW
DELTA 2 R/B (1) 3.4 06:59:52 86° NE 06:59:52 86° NE 07:05:20 10° ENE
USA 307 4.0 07:02:25 39° ENE 07:02:25 39° ENE 07:05:12 10° NE
Cosmos 841 Rocket 3.5 07:03:21 74° E 07:03:21 74° E 07:08:17 10° NNE
Cosmos 990 Rocket 4.0 06:57:58 10° NNW 07:02:41 71° NW 07:02:41 71° NW
YAOGAN 11 4.4 07:05:57 65° N 07:05:57 65° N 07:09:50 10° N
SL-16 R/B 4.3 07:07:19 13° W 07:09:40 17° NW 07:13:11 10° NNW
SJ 16-02 3.6 07:06:35 10° NW 07:07:51 16° WNW 07:07:51 16° WNW
Cosmos 1656 Rocket 3.8 07:08:38 10° NNW 07:14:19 71° ENE 07:15:31 54° SE
USA 308 3.5 07:17:46 55° NE 07:17:46 55° NE 07:21:09 10° NE
Cosmos 1937 Rocket 3.5 07:11:56 10° NNW 07:17:17 78° ENE 07:17:48 70° SE
Cosmos 1898 Rocket 3.4 07:12:10 10° NNW 07:17:07 72° WNW 07:17:07 72° WNW
Helios 1B rocket 3.6 07:15:55 10° NNE 07:19:18 35° E 07:19:18 35° E
USA 290 4.4 07:22:19 25° NE 07:22:19 25° NE 07:23:52 10° NNE
ARGOS Delta rocket 4.1 07:19:02 10° NNE 07:24:32 75° E 07:25:12 66° SSE
Cosmos 1606 3.6 07:20:56 10° N 07:24:03 45° NE 07:24:03 45° NE
Helios 1A 3.6 07:26:31 48° NW 07:26:31 48° NW 07:29:42 10° NNW
Cosmos 2369 Rocket 2.3 07:20:29 10° NNW 07:25:56 57° W 07:25:56 57° W
NOSS 2-2 (E) 4.2 07:30:04 40° N 07:30:04 40° N 07:32:33 10° NNE
Nadezhda 4 Rocket 4.0 07:29:04 56° WSW 07:30:01 63° W 07:36:06 10° N
CZ-4 R/B 4.4 07:25:56 10° N 07:30:18 44° WNW 07:30:18 44° WNW
Cosmos 2026 Rocket 4.3 07:29:40 43° SSE 07:31:34 61° E 07:37:47 10° NNE
Cosmos 1814 Rocket 3.8 07:32:43 77° SW 07:33:06 86° WNW 07:38:18 10° NNE
ATLAS 5 CENTAUR R/B 1.7 07:34:05 62° NNE 07:34:05 62° NNE 07:37:39 10° NNE
USA 305 3.4 07:34:41 52° NW 07:34:41 52° NW 07:38:47 10° NE
Meteor 2-15 4.5 07:29:24 10° N 07:35:34 74° E 07:37:35 44° SSE
Cosmos 2263 4.1 07:34:51 10° NNW 07:40:25 60° WSW 07:40:42 60° WSW
Lacrosse 4 Rocket 3.0 07:38:44 10° N 07:42:24 31° ENE 07:44:51 17° ESE
NOSS 2-2 (C) 3.9 07:43:31 45° N 07:43:31 45° N 07:46:15 10° NNE
Cosmos 1570 Rocket 3.9 07:43:24 63° WSW 07:44:00 69° WNW 07:49:14 10° NNE
SL-19 R/B 4.4 07:39:30 10° NNE 07:44:46 61° ESE 07:46:09 46° SSE
Cosmos 1437 Rocket 4.3 07:41:37 10° NNW 07:43:43 26° NW 07:43:43 26° NW
Aureole 3 Rocket 3.4 07:43:05 10° N 07:47:23 85° E 07:48:33 55° SSE
Cosmos 372 Rocket 3.9 07:46:06 10° NNW 07:51:23 89° E 07:52:44 51° SSE
Cosmos 1932 4.4 07:49:57 10° NW 07:56:01 58° WSW 07:57:19 48° SSW
Cosmos 2098 Rocket 4.3 07:56:36 36° W 07:57:02 36° W 08:01:27 10° NNW
USA 306 4.0 07:56:16 32° WNW 07:57:08 36° NW 08:01:05 10° NNE
Cosmos 921 Rocket 4.0 07:59:46 32° WNW 07:59:46 32° WNW 08:03:29 10° N
Cosmos 2208 Rocket 4.2 07:58:36 51° WSW 07:59:42 63° WNW 08:05:08 10° NNE
ADEOS Rocket 3.8 07:53:19 14° SSE 07:59:47 62° ENE 08:06:25 10° N
SL-16 R/B 2.4 08:00:14 41° S 08:02:33 74° WSW 08:08:45 10° NNW
Resurs 1-4 Rocket 2.5 08:02:21 10° N 08:07:28 48° WNW 08:08:42 40° WSW
Cosmos 1092 Rocket 4.3 08:09:41 39° WSW 08:11:25 49° W 08:17:21 10° N
Cosmos 2151 3.0 08:11:14 58° W 08:11:27 59° W 08:15:37 10° N
X-37B 2.9 08:10:21 10° NW 08:13:04 25° NNE 08:15:47 10° ENE
CZ-4C R/B 2.9 08:12:05 27° SSE 08:13:36 34° ESE 08:18:21 10° NE
Cosmos 1242 Rocket 4.4 08:14:07 10° NW 08:15:50 20° WNW 08:15:50 20° WNW
ADEOS II 2.0 08:13:22 10° NNE 08:18:39 85° WNW 08:20:33 41° SSW
NPP 4.1 08:15:09 10° N 08:20:19 47° WNW 08:21:57 36° WSW
Meteor 2-3 Rocket 3.6 08:20:40 40° SSW 08:22:47 77° W 08:28:23 10° N
IRIDIUM 106 4.4 08:19:47 10° N 08:25:01 76° E 08:27:59 26° S
CZ-2D R/B 3.1 08:22:25 10° N 08:27:00 32° WNW 08:28:31 27° W
AQUA 4.4 08:25:03 10° N 08:29:32 43° WNW 08:30:49 35° WSW
IDEFIX/ARIANE 42P 2.8 08:27:21 10° NNE 08:32:35 67° ESE 08:35:30 26° S
GPS 2-04 Rocket1 2.5 08:32:08 56° SW 08:32:44 66° S 08:36:35 10° E
ERBS 2.5 08:35:36 51° WNW 08:35:52 54° NW 08:39:03 10° NNE
Cosmos 1655 Rocket 4.2 08:32:03 20° S 08:36:25 70° E 08:42:37 10° NNE
Delta 2 Rocket 3.7 08:37:21 41° S 08:37:45 42° SSE 08:41:25 10° E
Cosmos 1271 Rocket 3.4 08:38:11 10° N 08:41:51 50° E 08:44:52 14° SSE
Cosmos 1782 2.7 08:37:49 10° N 08:41:51 87° E 08:43:51 28° S
Cosmos 2084 Rocket 4.3 08:41:46 26° SSE 08:43:16 37° ESE 08:46:55 10° NE
CZ-4C R/B 3.6 08:42:57 16° SSE 08:45:31 54° ENE 08:48:54 10° N
DELTA 2 R/B (1) 3.7 08:40:51 10° W 08:46:23 74° N 08:51:57 10° E
Meteor 1-26 Rocket 4.3 08:42:04 10° NNW 08:47:55 71° W 08:52:29 18° S
CBERS-1 4.0 08:44:58 10° N 08:50:05 71° WNW 08:52:54 27° SSW
IRS-1D 3.7 08:45:43 10° N 08:50:41 54° WNW 08:53:07 28° SW
Helios 1B rocket 4.3 08:52:07 10° NNW 08:54:37 16° WNW 08:55:36 15° W
CZ-2C R/B 4.3 08:50:58 10° NE 08:54:56 24° E 08:58:47 10° SSE
IRS-1C 4.2 08:52:44 10° NNE 08:58:05 77° ESE 09:02:14 17° S
Tianhe-1 1.5 08:58:01 40° S 08:58:36 46° SSE 09:01:40 10° ENE
Cosmos 1328 Rocket 3.5 08:57:23 10° N 09:01:46 84° W 09:05:31 14° S
Spot 1 4.4 09:01:30 10° SSE 09:06:37 89° WSW 09:11:34 10° NNW
Meteor 1-28 Rocket 3.8 09:05:33 28° SW 09:06:52 37° W 09:10:25 10° NNW
ATLAS 2A CENTAUR R/B 3.9 09:06:09 18° S 09:07:13 20° SSE 09:12:34 10° ESE
Cosmos 773 Rocket 4.3 09:03:52 15° S 09:08:10 66° ESE 09:13:25 10° NNE
Cosmos 44 4.0 09:07:13 16° S 09:11:11 56° ESE 09:16:29 10° NE
Cosmos 1553 Rocket 4.4 09:05:57 10° NNW 09:11:47 43° W 09:16:15 16° SSW
MSX 3.8 09:08:06 10° N 09:13:50 72° WNW 09:18:34 15° SSW
SeaSat 1 2.6 09:11:59 10° NNE 09:16:52 63° WNW 09:20:26 18° SW
S3M 4.1 09:12:05 10° NNW 09:18:07 59° W 09:24:13 10° S
ATLAS 5 CENTAUR R/B 4.1 09:18:43 10° NW 09:18:54 10° NW 09:19:05 10° NNW
ALOS 4.3 09:16:20 10° NE 09:20:12 25° E 09:24:02 10° SSE
Lacrosse 4 Rocket 2.8 09:17:59 10° WNW 09:20:47 18° WSW 09:21:02 18° WSW
USA 281 3.2 09:15:13 10° SSE 09:21:45 73° WSW 09:28:21 10° NNW
Cosmos 1151 Rocket 3.8 09:20:38 10° NNW 09:24:26 32° W 09:27:04 17° SW
FALCON 9 DEB 3.8 09:23:58 10° WNW 09:27:00 31° SW 09:30:01 10° SSE
SL-4 R/B 4.5 09:26:18 10° NNW 09:29:00 20° NNE 09:31:38 10° ENE
Meteor 1-10 Rocket 4.3 09:24:05 10° N 09:29:58 89° E 09:35:41 10° S
Meteor 2-6 Rocket 4.3 09:25:49 10° NNW 09:31:38 66° W 09:37:15 10° S
Cosmos 1408 Rocket 4.1 09:29:01 16° SW 09:32:19 43° W 09:36:35 10° N
Cosmos 1833 Rocket 2.7 09:27:13 13° SSW 09:32:22 87° WNW 09:38:03 10° NNE
Cosmos 1515 Rocket 3.6 09:28:50 10° NNW 09:33:15 68° W 09:37:39 10° S
Cosmos 1862 4.1 09:30:47 16° SW 09:33:30 36° WNW 09:37:16 10° N
Alouette 2 Rocket 4.4 09:31:28 10° NW 09:34:43 28° W 09:38:43 10° SSW
NOSS 3-4 (A) 3.9 09:29:49 10° SSW 09:35:24 55° ESE 09:41:17 10° NE
NOSS 3-4 (C) 3.9 09:29:57 10° SSW 09:35:33 54° ESE 09:41:25 10° NE
Cosmos 1125 Rocket 4.4 09:32:40 10° NW 09:37:12 30° W 09:41:44 10° SSW
Lacrosse 5 rocket 2.9 09:35:03 10° NNW 09:38:26 35° NE 09:41:55 10° ESE
CZ-4B R/B 3.8 09:35:51 10° N 09:40:59 56° WNW 09:46:01 10° SSW
BREEZE-M DEB (TANK) 2.6 09:38:51 13° WSW 09:42:57 89° NNW 09:45:46 10° ENE
ARIANE 5 R/B 2.9 09:38:53 10° N 09:43:41 48° WNW 09:48:28 10° SW
FENGYUN 3A 4.4 09:38:54 10° NNE 09:44:14 53° E 09:49:31 10° S
NOSS 3-2 (A) 4.3 09:37:24 10° NNW 09:45:14 85° ENE 09:53:59 10° SSE
ADEOS Rocket 4.5 09:40:16 11° SW 09:45:28 23° W 09:50:44 10° NW
Meteor 1-27 Rocket 3.9 09:40:10 10° N 09:45:44 74° E 09:51:14 10° SSE
ATLAS 2AS CENTAUR R/B 4.1 09:39:02 10° S 09:46:17 42° ESE 09:53:32 10° NE
Gbstr 26 Del rocket 4.0 09:42:00 10° SSW 09:46:22 50° SE 09:51:50 10° ENE
X-37B 0.5 09:46:48 10° WNW 09:49:59 86° SSW 09:53:09 10° ESE
Cosmos 2082 Rocket 2.4 09:50:16 10° SSW 09:55:49 72° ESE 10:01:26 10° NNE
ADEOS II 4.3 09:56:59 10° NW 09:57:29 10° WNW 09:57:57 10° WNW
FALCON 9 DEB 2.8 09:57:13 10° NW 10:00:21 84° SW 10:03:27 10° SE
NOSS 7 (H) 4.5 09:57:49 10° SSW 10:01:52 89° SE 10:05:00 10° NNE
CZ-4C R/B 3.3 09:57:48 10° WSW 10:02:03 29° NW 10:06:59 10° NNE
OAO 3 Rocket 3.7 10:01:01 10° WSW 10:05:32 46° SSE 10:10:09 10° E
CZ-2D R/B 4.4 10:03:19 10° N 10:06:59 30° WNW 10:10:33 10° SW
PSLV R/B 3.8 10:03:47 10° NNE 10:08:09 76° ESE 10:12:30 10° S
Cosmos 1812 4.5 10:05:49 10° NW 10:08:11 16° W 10:10:33 10° SW
